SCP
0 0 0 0 0 0 0 0 0 0 0 0 0 0 0 0 0 0 0 0 0 0 0 0 0 0 0 0 0 0 0 0 0 0 0 0 0 0 0 0 0 0 0 0
0 0 0 0 0 0 0 0 0 0 0 0 0 0 0 0 0 0 0 0 0 0 0 0 0 0 0 0 0 0 0 0 0 0 0 0 0 0 0 0 0 0 0 0
0 0 0 0 0 0 0 0 0 0 0 0 0 0 0 0 0 0 0 0 0 0 0 0 0 0 0 0 0 0 0 0 0 0 0 0 0 0 0 0 0 0 0 0
0 0 0 0 0 0 0 0 0 0 0 0 0 0 0 0 0 0 0 0 0 0 0 0 0 0 0 0 0 0 0 0 0 0 0 0 0 0 0 0 0 0 0 0
0 0 0 0 0 0 0 0 0 0 0 0 0 0 0 0 0 0 0 0 0 0 0 0 0 0 0 0 0 0 0 0 0 0 0 0 0 0 0 0 0 0 0 0
0 0 0 0 0 0 0 0 0 0 0 0 0 0 0 0 0 0 0 0 0 0 0 0 0 0 0 0 0 0 0 0 0 0 0 0 0 0 0 0 0 0 0 0
0 0 0 0 0 0 0 0 0 0 0 0 0 0 0 0 0 0 0 0 0 0 0 0 0 0 0 0 0 0 0 0 0 0 0 0 0 0 0 0 0 0 0 0
0 0 0 0 0 0 0 0 0 0 0 0 0 0 0 0 0 0 0 0 0 0 0 0 0 0 0 0 0 0 0 0 0 0 0 0 0 0 0 0 0 0 0 0
0 0 0 0 0 0 0 0 0 0 0 0 0 0 0 0 0 0 0 0 0 0 0 0 0 0 0 0 0 0 0 0 0 0 0 0 0 0 0 0 0 0 0 0
0 0 0 0 0 0 0 0 0 0 0 0 0 0 0 0 0 0 0 0 0 0 0 0 0 0 0 0 0 0 0 0 0 0 0 0 0 0 0 0 0 0 0 0
0 0 0 0 0 0 0 0 0 0 0 0 0 0 0 0 0 0 0 0 0 0 0 0 0 0 0 0 0 0 0 0 0 0 0 0 0 0 0 0 0 0 0 0
0 0 0 0 0 0 0 0 0 0 0 0 0 0 0 0 0 0 0 0 0 0 0 0 0 0 0 0 0 0 0 0 0 0 0 0 0 0 0 0 0 0 0 0
0 0 0 0 0 0 0 0 0 0 0 0 0 0 0 0 0 0 0 0 0 0 0 0 0 0 0 0 0 0 0 0 0 0 0 0 0 0 0 0 0 0 0 0
0 0 0 0 0 0 0 0 0 0 0 0 0 0 0 0 0 0 0 0 0 0 0 0 0 0 0 0 0 0 0 0 0 0 0 0 0 0 0 0 0 0 0 0
0 0 0 0 0 0 0 0 0 0 0 0 0 0 0 0 0 0 0 0 0 0 0 0 0 0 0 0 0 0 0 0 0 0 0 0 0 0 0 0 0 0 0 0
0 0 0 0 0 0 0 0 0 0 0 0 0 0 0 0 0 0 0 0 0 0 0 0 0 0 0 0 0 0 0 0 0 0 0 0 0 0 0 0 0 0 0 0
0 0 0 0 0 0 0 0 0 0 0 0 0 0 0 0 0 0 0 0 0 0 0 0 0 0 0 0 0 0 0 0 0 0 0 0 0 0 0 0 0 0 0 0
0 0 0 0 0 0 0 0 0 0 0 0 0 0 0 0 0 0 0 0 0 0 0 0 0 0 0 0 0 0 0 0 0 0 0 0 0 0 0 0 0 0 0 0
0 0 0 0 0 0 0 0 0 0 0 0 0 0 0 0 0 0 0 0 0 0 0 0 0 0 0 0 0 0 0 0 0 0 0 0 0 0 0 0 0 0 0 0
0 0 0 0 0 0 0 0 0 0 0 0 0 0 0 0 0 0 0 0 0 0 0 0 0 0 0 0 0 0 0 0 0 0 0 0 0 0 0 0 0 0 0 0
0 0 0 0 0 0 0 0 0 0 0 0 0 0 0 0 0 0 0 0 0 0 0 0 0 0 0 0 0 0 0 0 0 0 0 0 0 0 0 0 0 0 0 0
0 0 0 0 0 0 0 0 0 0 0 0 0 0 0 0 0 0 0 0 0 0 0 0 0 0 0 0 0 0 0 0 0 0 0 0 0 0 0 0 0 0 0 0
0 0 0 0 0 0 0 0 0 0 0 0 0 0 0 0 0 0 0 0 0 0 0 0 0 0 0 0 0 0 0 0 0 0 0 0 0 0 0 0 0 0 0 0
0 0 0 0 0 0 0 0 0 0 0 0 0 0 0 0 0 0 0 0 0 0 0 0 0 0 0 0 0 0 0 0 0 0 0 0 0 0 0 0 0 0 0 0
0 0 0 0 0 0 0 0 0 0 0 0 0 0 0 0 0 0 0 0 0 0 0 0 0 0 0 0 0 0 0 0 0 0 0 0 0 0 0 0 0 0 0 0
0 0 0 0 0 0 0 0 0 0 0 0 0 0 0 0 0 0 0 0 0 0 0 0 0 0 0 0 0 0 0 0 0 0 0 0 0 0 0 0 0 0 0 0
0 0 0 0 0 0 0 0 0 0 0 0 0 0 0 0 0 0 0 0 0 0 0 0 0 0 0 0 0 0 0 0 0 0 0 0 0 0 0 0 0 0 0 0
Wind_Speed
10 10 8 10 11 11 13 12 11 11 11 11 8 7 6 5 4 4 4 3 3 3 3 3 3 3 3 3 3 3 4 4 5 4 4 4 4 4 4 4 5 4 4 4
8 7 9 12 14 14 15 15 16 16 16 11 9 6 6 6 6 6 6 5 4 4 4 4 4 4 4 4 4 4 4 5 4 4 4 4 4 4 4 5 5 5 5 5
7 4 7 11 11 12 10 10 10 13 10 6 6 7 7 6 6 6 6 6 5 5 5 5 4 4 4 4 4 4 5 5 4 4 4 4 4 4 5 5 5 5 5 5
5 5 10 4 1 5 8 8 10 9 7 6 7 7 7 6 6 7 6 6 6 5 5 5 4 4 4 4 4 5 5 5 5 5 5 5 5 5 5 5 5 5 5 6
4 7 11 7 3 4 6 6 6 9 9 7 6 6 5 4 5 6 7 6 6 5 5 5 5 4 4 4 4 5 5 6 5 5 6 5 6 6 5 5 5 5 5 6
6 7 8 2 2 0 3 5 2 4 5 5 3 5 4 4 6 7 6 5 5 4 4 5 4 3 4 5 5 6 6 6 5 5 6 6 6 6 5 5 5 5 5 6
10 9 10 3 1 3 5 2 1 2 4 4 5 6 7 7 7 7 7 6 5 5 5 5 4 4 5 6 6 6 5 5 6 6 6 6 6 5 5 5 5 5 5 5
8 10 10 3 4 5 3 3 3 4 4 6 8 8 8 8 8 7 7 6 5 5 5 4 4 4 6 7 6 5 5 5 6 6 5 5 5 5 5 5 5 5 5 5
8 8 3 3 5 4 4 5 5 5 6 7 9 10 9 9 8 7 7 6 5 5 6 5 5 5 7 7 5 5 5 6 6 6 5 5 5 5 4 4 4 4 4 4
9 10 9 8 8 8 7 7 7 7 8 9 10 11 10 9 8 7 7 6 5 5 6 6 6 6 7 6 5 5 6 6 5 5 5 5 4 4 4 4 4 4 4 4
11 11 10 9 8 7 8 8 8 9 9 10 10 10 10 9 8 7 7 6 6 6 7 7 6 7 6 6 5 6 6 6 5 5 5 5 5 5 5 5 5 5 5 4
10 9 8 9 7 8 9 9 9 10 10 9 9 10 9 9 8 7 7 7 7 7 8 7 7 7 7 6 6 6 6 6 4 4 4 4 4 4 6 7 8 9 9 7
12 9 9 10 9 8 8 9 9 9 9 9 9 8 8 8 7 7 8 8 8 8 8 7 7 7 7 6 6 7 7 6 4 4 5 5 4 4 4 5 7 9 10 10
9 8 9 9 9 8 8 8 8 8 8 8 7 7 7 8 8 8 8 8 7 7 7 7 7 8 7 6 6 7 7 6 6 5 5 5 5 5 4 4 4 4 6 9
7 7 8 8 7 7 6 6 7 7 7 7 6 7 7 7 8 8 8 7 6 7 7 7 7 7 6 6 6 7 6 5 5 5 5 5 4 4 5 5 5 5 4 5
6 5 6 6 7 7 6 7 8 8 8 8 7 7 7 8 8 8 7 6 6 8 7 7 8 7 6 6 6 6 6 7 6 5 4 4 4 5 5 5 5 5 4 4
5 6 5 6 7 8 8 8 8 9 8 8 9 8 8 7 7 7 7 6 7 8 8 8 8 7 6 6 6 5 5 5 7 5 5 5 5 5 5 5 5 5 5 5
6 7 7 7 7 8 8 8 8 8 8 8 8 7 7 7 8 8 7 6 6 7 8 7 7 6 6 6 6 5 4 4 5 5 5 5 5 5 5 5 5 6 5 5
5 6 7 7 7 7 7 8 8 7 7 7 7 8 8 8 7 7 6 6 7 8 7 6 6 6 6 6 5 5 5 5 5 5 5 6 6 5 5 5 5 6 5 4
5 6 6 7 7 6 7 7 7 7 6 6 6 7 7 7 7 6 6 7 7 6 6 6 6 6 6 5 5 4 5 5 5 5 5 5 5 5 5 5 6 5 5 5
6 6 6 6 7 7 7 6 6 7 6 6 6 7 7 7 6 6 6 7 6 5 6 7 5 5 5 5 5 4 5 5 5 5 5 5 5 5 5 5 5 5 5 5
6 6 7 7 7 7 7 6 6 6 6 6 6 6 6 7 7 6 6 6 6 7 5 5 4 5 6 6 4 5 5 5 5 5 5 5 5 5 5 5 5 5 5 5
7 7 8 7 7 7 7 7 6 6 7 7 7 7 7 6 5 5 6 5 5 6 5 5 6 8 8 5 4 4 5 5 5 5 5 5 5 5 5 5 5 5 5 5
7 7 7 7 6 6 8 8 7 6 7 7 7 7 6 6 5 5 5 7 8 8 6 7 9 9 8 4 4 4 5 5 4 4 4 4 4 4 4 4 4 4 4 5
7 7 7 7 7 7 7 7 7 7 7 6 7 7 6 5 6 5 5 6 8 7 6 7 9 9 6 4 4 4 4 4 4 4 4 4 4 4 4 4 4 4 4 4
8 7 7 7 7 7 6 6 6 6 6 6 6 6 5 4 5 5 5 6 7 7 6 5 5 6 4 4 4 4 4 4 4 4 4 4 5 4 4 4 5 5 4 4
7 7 6 6 6 6 6 6 6 7 6 6 7 6 5 5 5 5 6 5 5 5 5 4 4 4 4 4 4 4 4 4 4 4 4 4 4 4 4 5 4 4 4 4
Wind_Direction
265 272 268 262 257 238 229 237 248 260 264 277 289 285 283 274 269 267 266 266 264 264 259 251 253 254 255 253 250 246 246 248 253 257 257 257 255 255 255 253 250 247 246 247
270 261 261 264 257 247 242 243 249 264 273 281 292 286 275 268 264 263 263 263 265 264 263 259 257 256 255 252 248 245 248 252 257 258 255 253 254 254 253 253 250 246 245 247
269 285 283 261 244 228 227 227 231 245 261 286 285 281 279 276 265 262 265 267 264 264 265 267 264 256 252 249 245 245 250 255 254 253 253 253 254 252 252 255 252 248 248 248
276 278 249 258 124 218 229 243 232 248 271 281 286 296 286 275 272 272 272 272 269 267 266 269 267 259 252 245 240 242 249 253 254 252 255 257 253 252 254 255 254 252 252 252
241 259 271 272 225 203 219 253 234 244 265 281 298 294 275 280 280 280 277 276 274 269 266 267 262 253 247 245 243 244 249 252 253 252 254 255 255 257 258 257 257 256 256 254
226 247 256 272 93 209 224 245 215 237 268 285 291 284 302 328 303 291 286 281 275 272 268 263 259 246 243 248 249 250 254 259 259 254 252 253 256 260 259 257 260 261 257 255
230 243 264 285 124 166 225 288 13 270 278 275 272 287 306 307 301 295 294 289 282 272 266 265 260 247 250 254 255 259 262 261 260 256 253 255 258 258 256 255 257 259 259 260
211 228 247 149 156 206 277 333 290 281 281 278 281 290 292 293 293 293 293 289 283 276 274 272 257 246 253 259 266 266 259 257 258 257 255 251 252 254 251 249 252 257 260 266
213 234 287 192 227 256 271 270 273 276 277 278 283 286 288 289 287 285 284 283 282 279 278 274 261 250 256 265 267 262 258 258 260 259 255 250 247 248 247 243 247 255 257 263
252 260 266 265 263 263 260 270 280 282 282 281 283 285 285 283 282 282 280 278 278 276 273 273 269 261 262 266 261 255 257 261 260 258 257 252 246 242 241 240 245 253 255 259
253 268 281 270 256 269 280 279 279 281 282 279 279 280 282 281 278 276 275 274 270 266 268 274 276 271 267 262 254 253 257 258 256 253 252 252 247 244 245 245 244 250 256 258
255 264 266 280 286 285 279 278 283 288 288 283 276 277 279 276 275 273 273 273 269 265 266 270 272 272 269 259 248 248 252 253 250 247 247 247 251 256 245 249 255 255 261 264
264 277 275 281 285 282 279 281 284 282 280 282 279 274 275 276 275 274 271 268 266 267 269 271 271 270 269 258 247 244 247 251 250 247 245 245 245 251 264 258 248 251 255 258
262 269 272 274 281 288 286 286 285 283 280 277 275 275 273 274 273 270 268 268 269 269 269 269 269 269 269 260 249 246 249 248 247 249 247 246 245 247 252 261 267 265 254 255
257 255 263 279 285 289 291 291 288 285 286 284 279 275 271 271 272 273 274 272 270 267 268 268 268 271 270 259 250 247 249 248 244 247 246 246 246 247 249 252 258 266 272 263
272 266 264 270 279 290 293 288 282 283 286 286 284 280 276 274 275 277 275 268 262 266 270 271 269 272 268 257 252 249 247 243 243 247 247 245 243 243 246 248 251 255 258 263
253 263 270 276 283 287 284 279 277 279 282 282 282 284 283 281 279 278 278 273 268 269 272 271 272 274 266 255 250 249 249 244 236 242 244 244 244 245 246 248 250 254 256 256
249 257 260 263 269 278 285 288 285 283 281 281 284 281 278 274 275 280 285 287 284 280 276 272 271 270 264 256 250 249 246 245 240 241 243 243 246 246 246 247 250 254 259 256
256 262 267 270 271 274 278 283 284 284 285 283 279 278 278 276 276 280 283 280 278 280 284 282 274 270 268 260 251 248 245 244 244 244 245 247 249 246 246 247 249 251 254 254
270 275 279 281 281 276 278 284 288 289 288 286 283 284 284 283 282 280 277 272 269 275 285 286 281 275 270 260 247 246 244 244 245 246 246 245 247 249 248 249 251 252 251 250
275 280 283 285 288 286 280 281 282 284 287 285 279 280 284 287 285 278 275 279 283 281 278 275 272 271 268 262 251 250 245 245 246 246 246 247 250 251 251 250 251 251 251 252
277 279 282 284 284 286 286 282 276 276 281 283 282 283 285 287 285 279 269 269 281 283 282 276 273 269 269 270 260 251 247 247 249 248 248 248 250 251 250 250 250 251 251 251
277 277 278 279 279 282 285 280 273 272 273 276 278 278 278 280 279 278 284 282 279 281 282 275 276 276 277 273 261 254 251 250 249 248 248 249 249 250 252 252 251 250 249 249
276 277 277 280 281 279 278 279 277 275 273 275 271 269 271 277 277 267 270 282 284 284 281 279 282 282 281 272 262 256 254 251 251 251 251 251 250 250 252 254 254 252 251 250
275 275 274 274 273 271 271 276 280 278 277 277 277 274 267 261 266 275 276 273 275 280 279 278 280 281 276 266 261 259 257 253 252 252 250 250 252 252 254 254 253 253 252 251
272 272 272 269 266 269 271 272 272 274 277 278 280 279 275 270 266 269 272 272 272 274 275 274 274 274 268 262 260 259 259 262 260 254 250 252 254 255 255 255 255 253 253 253
272 272 274 275 272 263 261 262 264 268 269 270 278 281 280 278 274 272 273 274 275 274 273 272 270 266 263 259 257 256 255 255 255 255 255 255 255 255 255 254 254 252 251 250